Weather History for Newark Heath, OH

Change the Weather History Date:

Monday, May 6, 2013

  Actual Average Record
Temperature  
Mean Temperature 64 °F -  
Max Temperature 70 °F 70 °F 89 °F (1949)
Min Temperature 57 °F 46 °F 28 °F (1957)
Degree Days  
Heating Degree Days 2    
Growing Degree Days 14 (Base 50)    
Moisture  
Dew Point 47 °F    
Average Humidity 61    
Maximum Humidity 87    
Minimum Humidity 34    
Precipitation  
Precipitation 0.02 in - - ()
Sea Level Pressure  
Sea Level Pressure 29.98 in    
Wind  
Wind Speed 5 mph (East)    
Max Wind Speed 12 mph    
Max Gust Speed -    
Visibility 10 miles    
Events Rain    
Averages and records for this station are not official NWS values.
T = Trace of Precipitation, MM = Missing Value Source: NWS Daily Summary

Daily Weather History Graph

Daily Weather History Graph

Search for Another Location

Airport:

Trip Planner

Search our weather history database for the weather conditions in past years. The results will help you decide how hot, cold, wet, or windy it might be!

Date:

Astronomy

May. 06, 2013 Rise Set
Actual Time 6:23 AM EDT 8:29 PM EDT
Civil Twilight 5:53 AM EDT 8:59 PM EDT
Nautical Twilight 5:17 AM EDT 9:36 PM EDT
Astronomical Twilight 4:37 AM EDT 10:16 PM EDT
Moon 4:24 AM EDT (5/6) 5:28 PM EDT (5/6)
Length of Visible Light 15h 06m
Length of Day
14h 06m
Waning Crescent, 11% of the Moon is Illuminated
May 6
Waning Crescent
May 9
New
May 18
First Quarter
May 25
Full
May 31
Last Quarter

Hourly Weather History & Observations

Time (EDT) Temp. Dew Point Humidity Pressure Visibility Wind Dir Wind Speed Gust Speed Precip Events Conditions
12:54 AM 62.1 °F 33.1 °F 34% 29.96 in 10.0 mi ENE 4.6 mph - N/A   Mostly Cloudy
1:54 AM 60.1 °F 34.0 °F 38% 29.97 in 10.0 mi NNE 3.5 mph - N/A   Overcast
2:54 AM 60.1 °F 36.0 °F 41% 29.96 in 10.0 mi Variable 3.5 mph - N/A   Overcast
3:54 AM 59.0 °F 39.0 °F 48% 29.96 in 10.0 mi ENE 4.6 mph - 0.00 in   Overcast
4:54 AM 57.9 °F 39.9 °F 51% 29.96 in 10.0 mi NE 3.5 mph - 0.00 in   Overcast
5:54 AM 57.0 °F 41.0 °F 55% 29.97 in 10.0 mi ENE 3.5 mph - 0.00 in   Mostly Cloudy
6:54 AM 57.0 °F 42.1 °F 57% 29.99 in 10.0 mi ENE 4.6 mph - N/A   Mostly Cloudy
7:54 AM 57.0 °F 42.1 °F 57% 30.00 in 10.0 mi ENE 6.9 mph - N/A   Mostly Cloudy
8:54 AM 57.0 °F 44.1 °F 62% 30.00 in 10.0 mi NE 4.6 mph - N/A   Mostly Cloudy
9:54 AM 57.9 °F 44.1 °F 60% 30.00 in 10.0 mi East 10.4 mph - N/A   Partly Cloudy
10:54 AM 61.0 °F 46.0 °F 58% 30.00 in 10.0 mi Variable 4.6 mph - N/A   Partly Cloudy
11:54 AM 66.0 °F 48.0 °F 52% 29.99 in 10.0 mi ENE 11.5 mph - N/A   Clear
12:54 PM 69.1 °F 50.0 °F 51% 29.98 in 10.0 mi ENE 9.2 mph - N/A   Mostly Cloudy
1:54 PM 70.0 °F 50.0 °F 49% 29.97 in 10.0 mi East 9.2 mph - N/A   Overcast
2:54 PM 68.0 °F 52.0 °F 56% 29.96 in 10.0 mi SSE 6.9 mph - 0.00 in Rain Light Rain
3:54 PM 68.0 °F 50.0 °F 52% 29.95 in 10.0 mi East 8.1 mph - 0.00 in   Overcast
4:54 PM 64.9 °F 54.0 °F 68% 29.96 in 10.0 mi East 8.1 mph - 0.00 in Rain Light Rain
5:54 PM 64.9 °F 55.9 °F 73% 29.96 in 10.0 mi East 5.8 mph - 0.01 in Rain Light Rain
6:54 PM 63.0 °F 57.0 °F 81% 29.96 in 10.0 mi SE 6.9 mph - 0.00 in   Overcast
7:54 PM 61.0 °F 57.0 °F 87% 29.97 in 10.0 mi ESE 4.6 mph - 0.01 in Rain Light Rain
8:54 PM 60.1 °F 55.9 °F 86% 29.98 in 10.0 mi ESE 5.8 mph - 0.00 in   Overcast
9:54 PM 59.0 °F 54.0 °F 83% 29.98 in 10.0 mi ENE 4.6 mph - N/A   Scattered Clouds
10:54 PM 59.0 °F 53.1 °F 81% 29.99 in 10.0 mi East 6.9 mph - N/A   Clear
11:54 PM 59.0 °F 53.1 °F 81% 29.98 in 10.0 mi East 4.6 mph - N/A   Mostly Cloudy